When you browse on this site, cookies collect data to enhance your experience and personalize the content and advertising you see.
Visit our Privacy Policy to learn more. By continuing to use the site, you agree to this use of cookies and data.
  • In Lithuania
  • List of Countries
  • For 7 days
  • Water Temperature
  • Satellite Maps
  • Weather Map
  • Weather Widgets
  • user-avatar
    Login

    Hourly Weather Bogdyuki

    Today, 16 July, Tuesday

    Time Temperature Precipitation Wind Pressure Humidity
    00:00 +14°C° 0 mm 1 mps 744 mmHg 88%
    01:00 +14°C° 0 mm 1 mps 744 mmHg 89%
    02:00 +13°C° 0 mm 1 mps 744 mmHg 90%
    03:00 +13°C° 0 mm 1 mps 744 mmHg 91%
    04:00 +13°C° 0 mm 1 mps 744 mmHg 91%
    05:00 +13°C° 0 mm 2 mps 744 mmHg 92%
    06:00 +15°C° 0 mm 2 mps 744 mmHg 85%
    07:00 +16°C° 0 mm 2 mps 744 mmHg 79%
    08:00 +18°C° 0 mm 2 mps 744 mmHg 73%
    09:00 +19°C° 0.1 mm 3 mps 744 mmHg 67%
    10:00 +21°C° 0.1 mm 3 mps 743 mmHg 60%
    11:00 +22°C° 0.1 mm 4 mps 743 mmHg 54%
    12:00 +21°C° 0.3 mm 5 mps 743 mmHg 59%
    13:00 +21°C° 0.3 mm 6 mps 743 mmHg 64%
    14:00 +21°C° 0.3 mm 7 mps 742 mmHg 69%
    15:00 +20°C° 0.3 mm 7 mps 742 mmHg 67%
    16:00 +19°C° 0.3 mm 6 mps 742 mmHg 66%
    17:00 +17°C° 0.3 mm 6 mps 742 mmHg 64%
    18:00 +16°C° 0 mm 5 mps 742 mmHg 68%
    19:00 +15°C° 0 mm 4 mps 742 mmHg 71%
    20:00 +16°C° 0 mm 3 mps 742 mmHg 74%
    21:00 +14°C° 0.1 mm 3 mps 742 mmHg 81%
    22:00 +13°C° 0.1 mm 3 mps 742 mmHg 88%
    23:00 +12°C° 0.1 mm 3 mps 742 mmHg 94%

    Tomorrow, 17 July, Wednesday

    Time Temperature Precipitation Wind Pressure Humidity
    00:00 +11°C° 0 mm 3 mps 742 mmHg 95%
    01:00 +11°C° 0 mm 3 mps 742 mmHg 95%
    02:00 +12°C° 0 mm 2 mps 742 mmHg 96%
    03:00 +12°C° 0 mm 2 mps 742 mmHg 95%
    04:00 +10°C° 0 mm 2 mps 742 mmHg 94%
    05:00 +10°C° 0 mm 2 mps 742 mmHg 93%
    06:00 +12°C° 0.8 mm 2 mps 741 mmHg 93%
    07:00 +12°C° 0.8 mm 3 mps 741 mmHg 93%
    08:00 +12°C° 0.8 mm 3 mps 741 mmHg 92%
    09:00 +14°C° 0.7 mm 3 mps 741 mmHg 86%
    10:00 +15°C° 0.7 mm 4 mps 741 mmHg 80%
    11:00 +18°C° 0.7 mm 4 mps 741 mmHg 74%
    12:00 +18°C° 0.7 mm 4 mps 741 mmHg 72%
    13:00 +19°C° 0.7 mm 5 mps 741 mmHg 70%
    14:00 +19°C° 0.7 mm 5 mps 741 mmHg 68%
    15:00 +19°C° 0.4 mm 5 mps 741 mmHg 68%
    16:00 +19°C° 0.4 mm 5 mps 741 mmHg 68%
    17:00 +19°C° 0.4 mm 6 mps 741 mmHg 68%
    18:00 +17°C° 0.2 mm 5 mps 741 mmHg 73%
    19:00 +17°C° 0.2 mm 4 mps 741 mmHg 78%
    20:00 +16°C° 0.2 mm 3 mps 741 mmHg 83%
    21:00 +14°C° 0 mm 3 mps 742 mmHg 86%
    22:00 +13°C° 0 mm 3 mps 742 mmHg 89%
    23:00 +12°C° 0 mm 3 mps 742 mmHg 93%

    Day after tomorrow, 18 July, Thursday

    Time Temperature Precipitation Wind Pressure Humidity
    00:00 +11°C° 0 mm 3 mps 742 mmHg 94%
    01:00 +11°C° 0 mm 3 mps 742 mmHg 95%
    02:00 +11°C° 0 mm 3 mps 742 mmHg 97%
    03:00 +11°C° 0 mm 3 mps 742 mmHg 96%
    04:00 +12°C° 0 mm 4 mps 742 mmHg 95%
    05:00 +12°C° 0 mm 4 mps 742 mmHg 94%
    06:00 +13°C° 0 mm 4 mps 742 mmHg 91%
    07:00 +14°C° 0 mm 4 mps 742 mmHg 89%
    08:00 +14°C° 0 mm 4 mps 742 mmHg 86%
    09:00 +17°C° 0 mm 4 mps 742 mmHg 81%
    10:00 +18°C° 0 mm 4 mps 743 mmHg 76%
    11:00 +19°C° 0 mm 4 mps 743 mmHg 70%
    12:00 +20°C° 0.3 mm 5 mps 743 mmHg 67%
    13:00 +21°C° 0.3 mm 5 mps 743 mmHg 65%
    14:00 +22°C° 0.3 mm 6 mps 743 mmHg 62%
    15:00 +22°C° 0.2 mm 6 mps 743 mmHg 60%
    16:00 +23°C° 0.2 mm 5 mps 743 mmHg 59%
    17:00 +23°C° 0.2 mm 5 mps 743 mmHg 58%
    18:00 +21°C° 0 mm 5 mps 743 mmHg 64%
    19:00 +20°C° 0 mm 4 mps 743 mmHg 71%
    20:00 +19°C° 0 mm 3 mps 743 mmHg 77%
    21:00 +18°C° 0 mm 3 mps 744 mmHg 82%
    22:00 +17°C° 0 mm 3 mps 744 mmHg 86%
    23:00 +14°C° 0 mm 3 mps 744 mmHg 91%

    19 July, Friday

    Time Temperature Precipitation Wind Pressure Humidity
    00:00 +15°C° 0 mm 2 mps 744 mmHg 92%
    01:00 +15°C° 0 mm 2 mps 745 mmHg 93%
    02:00 +14°C° 0 mm 2 mps 745 mmHg 95%
    03:00 +14°C° 0 mm 2 mps 745 mmHg 95%
    04:00 +14°C° 0 mm 2 mps 745 mmHg 95%
    05:00 +13°C° 0 mm 2 mps 745 mmHg 95%
    06:00 +15°C° 0 mm 2 mps 745 mmHg 88%
    07:00 +17°C° 0 mm 2 mps 745 mmHg 81%
    08:00 +18°C° 0 mm 2 mps 746 mmHg 74%
    09:00 +20°C° 0 mm 2 mps 746 mmHg 66%
    10:00 +21°C° 0 mm 2 mps 746 mmHg 59%
    11:00 +24°C° 0 mm 2 mps 746 mmHg 51%
    12:00 +24°C° 0 mm 2 mps 746 mmHg 48%
    13:00 +25°C° 0 mm 2 mps 746 mmHg 44%
    14:00 +26°C° 0 mm 2 mps 746 mmHg 41%
    15:00 +26°C° 0 mm 2 mps 746 mmHg 41%
    16:00 +26°C° 0 mm 2 mps 746 mmHg 42%
    17:00 +26°C° 0 mm 2 mps 746 mmHg 43%
    18:00 +24°C° 0 mm 2 mps 746 mmHg 50%
    19:00 +23°C° 0 mm 2 mps 746 mmHg 57%
    20:00 +20°C° 0 mm 2 mps 746 mmHg 65%
    21:00 +20°C° 0 mm 1 mps 746 mmHg 65%
    22:00 +19°C° 0 mm 1 mps 747 mmHg 66%
    23:00 +18°C° 0 mm 1 mps 747 mmHg 66%

    20 July, Saturday

    Time Temperature Precipitation Wind Pressure Humidity
    00:00 +18°C° 0 mm 1 mps 747 mmHg 69%
    01:00 +16°C° 0 mm 1 mps 747 mmHg 71%
    02:00 +15°C° 0 mm 1 mps 747 mmHg 73%
    03:00 +15°C° 0 mm 1 mps 747 mmHg 75%
    04:00 +15°C° 0 mm 1 mps 747 mmHg 77%
    05:00 +15°C° 0 mm 1 mps 747 mmHg 79%
    06:00 +18°C° 0 mm 1 mps 747 mmHg 73%
    07:00 +20°C° 0 mm 1 mps 748 mmHg 68%
    08:00 +22°C° 0 mm 1 mps 748 mmHg 63%
    09:00 +23°C° 0 mm 1 mps 748 mmHg 58%
    10:00 +24°C° 0 mm 1 mps 749 mmHg 52%
    11:00 +26°C° 0 mm 1 mps 749 mmHg 47%
    12:00 +26°C° 0 mm 1 mps 749 mmHg 45%
    13:00 +27°C° 0 mm 1 mps 749 mmHg 43%
    14:00 +27°C° 0 mm 2 mps 749 mmHg 41%
    15:00 +27°C° 0 mm 2 mps 749 mmHg 44%
    16:00 +27°C° 0 mm 2 mps 749 mmHg 46%
    17:00 +26°C° 0 mm 2 mps 749 mmHg 49%
    18:00 +25°C° 0 mm 2 mps 749 mmHg 55%
    19:00 +24°C° 0 mm 2 mps 749 mmHg 62%
    20:00 +21°C° 0 mm 2 mps 749 mmHg 69%
    21:00 +20°C° 0 mm 2 mps 749 mmHg 71%
    22:00 +19°C° 0 mm 2 mps 750 mmHg 73%
    23:00 +18°C° 0 mm 2 mps 750 mmHg 76%

    21 July, Sunday

    Time Temperature Precipitation Wind Pressure Humidity
    00:00 +17°C° 0 mm 2 mps 750 mmHg 76%
    01:00 +18°C° 0 mm 1 mps 750 mmHg 76%
    02:00 +18°C° 0 mm 1 mps 750 mmHg 77%
    03:00 +16°C° 0 mm 1 mps 750 mmHg 77%
    04:00 +16°C° 0 mm 1 mps 751 mmHg 78%
    05:00 +16°C° 0 mm 1 mps 751 mmHg 78%
    06:00 +19°C° 0 mm 1 mps 751 mmHg 73%
    07:00 +20°C° 0 mm 1 mps 751 mmHg 68%
    08:00 +22°C° 0 mm 1 mps 751 mmHg 62%
    09:00 +24°C° 0 mm 1 mps 752 mmHg 57%
    10:00 +25°C° 0 mm 1 mps 752 mmHg 51%
    11:00 +27°C° 0 mm 1 mps 752 mmHg 45%
    12:00 +27°C° 0 mm 1 mps 752 mmHg 43%
    13:00 +28°C° 0 mm 1 mps 752 mmHg 41%
    14:00 +28°C° 0 mm 1 mps 752 mmHg 38%
    15:00 +28°C° 0 mm 1 mps 752 mmHg 40%
    16:00 +28°C° 0 mm 1 mps 752 mmHg 42%
    17:00 +28°C° 0 mm 2 mps 752 mmHg 43%
    18:00 +26°C° 0 mm 2 mps 752 mmHg 51%
    19:00 +25°C° 0 mm 2 mps 752 mmHg 58%
    20:00 +23°C° 0 mm 1 mps 752 mmHg 66%
    21:00 +22°C° 0 mm 1 mps 752 mmHg 69%
    22:00 +21°C° 0 mm 1 mps 752 mmHg 71%
    23:00 +20°C° 0 mm 1 mps 752 mmHg 74%
    Show more